Вернуться в каталог

CZ-6A DEB

АктивенPO
NORAD 54517·DEBRIS·🇨🇳 China

Запущен Nov 11, 2022 с Taiyuan Satellite Launch Center

Loading…

Ближайшие Пролёты (ближайшие 24 часа)

TLE

СвежийSource: Space-Track

Эпоха: Sep 13, 2026, 17:49 UTC

1 54517U 22151JV  26256.74297568  .00008648  00000-0  11319-2 0  9995
2 54517  98.6246 334.4020 0062401 347.9068  12.0639 14.79302067203572

Отслеживайте CZ-6A DEB в реальном времени с AllMySat

Download on the App Store